Weather History for Cooperstown, ND

Change the Weather History Date:

Thursday, August 15, 2013

  Actual Average (KJMS) Record (KJMS)
Temperature  
Mean Temperature 67 °F 69 °F  
Max Temperature 77 °F 82 °F 97 °F (1939)
Min Temperature 57 °F 56 °F 39 °F (1924)
Degree Days  
Heating Degree Days 0 1  
Month to date heating degree days 14  
Since 1 June heating degree days 133  
Since 1 July heating degree days 36  
Cooling Degree Days 2 5  
Month to date cooling degree days 84  
Year to date cooling degree days 356  
Since 1 June cooling degree days 336  
Growing Degree Days 17 (Base 50)    
Moisture  
Dew Point 60 °F    
Average Humidity 84    
Maximum Humidity 100    
Minimum Humidity 47    
Precipitation  
Precipitation 0.00 in 0.06 in 0.70 in (2009)
Month to date precipitation 0.95  
Year to date precipitation 13.04  
Sea Level Pressure  
Sea Level Pressure 30.07 in    
Wind  
Wind Speed 6 mph (South)    
Max Wind Speed 12 mph    
Max Gust Speed 16 mph    
Visibility 10 miles    
Events Rain    
T = Trace of Precipitation, MM = Missing Value Source: NWS Daily Summary

Daily Weather History Graph

Daily Weather History Graph

Search for Another Location

Airport:

Trip Planner

Search our weather history database for the weather conditions in past years. The results will help you decide how hot, cold, wet, or windy it might be!

Date:

Astronomy

Aug. 15, 2013 Rise Set
Actual Time 6:29 AM CDT 8:43 PM CDT
Civil Twilight 5:55 AM CDT 9:17 PM CDT
Nautical Twilight 5:13 AM CDT 9:59 PM CDT
Astronomical Twilight 4:25 AM CDT 10:46 PM CDT
Moon 4:10 PM CDT (8/15) 12:33 AM CDT (8/15)
Length of Visible Light 15h 21m
Length of Day
14h 14m
Waxing Gibbous, 64% of the Moon is Illuminated
Aug 15
Waxing Gibbous
Aug 20
Full
Aug 28
Last Quarter
Sep 5
New
Sep 12
First Quarter

Hourly Weather History & Observations

Time (CDT) Temp. Dew Point Humidity Pressure Visibility Wind Dir Wind Speed Gust Speed Precip Events Conditions
12:15 AM 62.6 °F 53.6 °F 72% 30.08 in 10.0 mi SSE 5.8 mph - N/A   Mostly Cloudy
12:35 AM 62.6 °F 53.6 °F 72% 30.08 in 10.0 mi SSE 5.8 mph - N/A   Overcast
12:55 AM 62.6 °F 55.4 °F 77% 30.08 in 10.0 mi SSE 5.8 mph - N/A   Overcast
1:15 AM 62.6 °F 53.6 °F 72% 30.07 in 10.0 mi SSE 6.9 mph - N/A   Overcast
1:35 AM 62.6 °F 53.6 °F 72% 30.07 in 10.0 mi SSE 6.9 mph - N/A   Overcast
1:55 AM 62.6 °F 53.6 °F 72% 30.07 in 10.0 mi SSE 5.8 mph - N/A   Overcast
2:15 AM 60.8 °F 55.4 °F 82% 30.07 in 10.0 mi SE 5.8 mph - N/A   Mostly Cloudy
2:35 AM 60.8 °F 55.4 °F 82% 30.06 in 10.0 mi SSE 5.8 mph - N/A   Mostly Cloudy
2:55 AM 60.8 °F 55.4 °F 82% 30.06 in 10.0 mi SE 6.9 mph - N/A   Mostly Cloudy
3:15 AM 59.0 °F 55.4 °F 88% 30.06 in 10.0 mi SSE 5.8 mph - N/A   Overcast
3:35 AM 59.0 °F 55.4 °F 88% 30.06 in 10.0 mi SSE 5.8 mph - N/A   Mostly Cloudy
3:55 AM 59.0 °F 55.4 °F 88% 30.06 in 10.0 mi South 4.6 mph - N/A   Mostly Cloudy
4:15 AM 57.2 °F 55.4 °F 94% 30.06 in 10.0 mi SSE 4.6 mph - N/A   Mostly Cloudy
4:35 AM 57.2 °F 55.4 °F 94% 30.06 in 10.0 mi SSE 3.5 mph - N/A   Scattered Clouds
4:55 AM 57.2 °F 55.4 °F 94% 30.06 in 10.0 mi SSE 4.6 mph - N/A   Scattered Clouds
5:15 AM 57.2 °F 57.2 °F 100% 30.06 in 10.0 mi SE 3.5 mph - N/A   Mostly Cloudy
5:35 AM 59.0 °F 57.2 °F 94% 30.05 in 10.0 mi South 4.6 mph - N/A   Mostly Cloudy
5:55 AM 59.0 °F 57.2 °F 94% 30.06 in 10.0 mi South 5.8 mph - N/A   Mostly Cloudy
6:15 AM 59.0 °F 57.2 °F 94% 30.06 in 10.0 mi SSE 4.6 mph - N/A   Mostly Cloudy
6:35 AM 59.0 °F 57.2 °F 94% 30.07 in 10.0 mi South 3.5 mph - N/A   Overcast
6:55 AM 59.0 °F 59.0 °F 100% 30.07 in 10.0 mi SSW 5.8 mph - N/A   Overcast
7:15 AM 59.0 °F 59.0 °F 100% 30.07 in 10.0 mi SSW 5.8 mph - N/A   Overcast
7:35 AM 59.0 °F 59.0 °F 100% 30.08 in 10.0 mi SSW 3.5 mph - N/A   Mostly Cloudy
7:55 AM 59.0 °F 59.0 °F 100% 30.08 in 10.0 mi ESE 4.6 mph - N/A   Overcast
8:15 AM 59.0 °F 59.0 °F 100% 30.08 in 10.0 mi SE 3.5 mph - N/A   Overcast
8:35 AM 60.8 °F 60.8 °F 100% 30.08 in 10.0 mi SSE 3.5 mph - N/A   Mostly Cloudy
8:55 AM 62.6 °F 62.6 °F 100% 30.09 in 10.0 mi SSE 4.6 mph - N/A   Mostly Cloudy
9:15 AM 62.6 °F 62.6 °F 100% 30.09 in 10.0 mi South 4.6 mph - N/A   Mostly Cloudy
9:35 AM 64.4 °F 62.6 °F 94% 30.09 in 10.0 mi SW 5.8 mph - N/A   Mostly Cloudy
9:55 AM 64.4 °F 62.6 °F 94% 30.09 in 10.0 mi SW 5.8 mph - N/A   Mostly Cloudy
10:15 AM 64.4 °F 64.4 °F 100% 30.09 in 10.0 mi WSW 6.9 mph - N/A   Mostly Cloudy
10:35 AM 64.4 °F 64.4 °F 100% 30.09 in 10.0 mi WSW 4.6 mph - N/A   Mostly Cloudy
10:55 AM 66.2 °F 64.4 °F 94% 30.09 in 9.0 mi WSW 3.5 mph - N/A Rain Light Rain
11:15 AM 64.4 °F 64.4 °F 100% 30.09 in 8.0 mi SSW 3.5 mph - N/A Rain Light Rain
11:35 AM 66.2 °F 66.2 °F 100% 30.09 in 10.0 mi SSW 5.8 mph - N/A   Scattered Clouds
11:55 AM 66.2 °F 66.2 °F 100% 30.09 in 9.0 mi South 6.9 mph - N/A   Partly Cloudy
12:15 PM 66.2 °F 66.2 °F 100% 30.10 in 9.0 mi SSW 6.9 mph - N/A   Partly Cloudy
12:35 PM 68.0 °F 66.2 °F 94% 30.10 in 10.0 mi South 5.8 mph - N/A   Scattered Clouds
12:55 PM 69.8 °F 64.4 °F 83% 30.09 in 10.0 mi SSW 9.2 mph - N/A   Partly Cloudy
1:15 PM 69.8 °F 64.4 °F 83% 30.09 in 10.0 mi SSW 9.2 mph - N/A   Partly Cloudy
1:35 PM 69.8 °F 64.4 °F 83% 30.09 in 10.0 mi SSW 8.1 mph - N/A   Partly Cloudy
1:55 PM 71.6 °F 62.6 °F 73% 30.09 in 10.0 mi SW 5.8 mph - N/A   Clear
2:15 PM 71.6 °F 60.8 °F 69% 30.09 in 10.0 mi SW 8.1 mph - N/A   Clear
2:35 PM 71.6 °F 60.8 °F 69% 30.08 in 10.0 mi SW 6.9 mph - N/A   Clear
2:55 PM 71.6 °F 60.8 °F 69% 30.07 in 10.0 mi SW 5.8 mph - N/A   Partly Cloudy
3:15 PM 73.4 °F 57.2 °F 57% 30.07 in 10.0 mi SSE 5.8 mph - N/A   Partly Cloudy
3:35 PM 75.2 °F 57.2 °F 53% 30.07 in 10.0 mi SSE 3.5 mph - N/A   Partly Cloudy
3:55 PM 75.2 °F 55.4 °F 50% 30.07 in 10.0 mi SSW 5.8 mph - N/A   Partly Cloudy
4:15 PM 77.0 °F 59.0 °F 54% 30.06 in 10.0 mi SW 6.9 mph - N/A   Scattered Clouds
4:35 PM 73.4 °F 59.0 °F 61% 30.06 in 10.0 mi SSW 8.1 mph - N/A   Mostly Cloudy
4:55 PM 75.2 °F 59.0 °F 57% 30.06 in 10.0 mi SSE 8.1 mph - N/A   Scattered Clouds
5:15 PM 77.0 °F 55.4 °F 47% 30.06 in 10.0 mi SW 8.1 mph 16.1 mph N/A   Scattered Clouds
5:35 PM 77.0 °F 59.0 °F 54% 30.06 in 10.0 mi SSW 11.5 mph - N/A   Scattered Clouds
5:55 PM 75.2 °F 59.0 °F 57% 30.07 in 10.0 mi SSW 9.2 mph - N/A   Scattered Clouds
6:15 PM 75.2 °F 62.6 °F 65% 30.07 in 10.0 mi SSW 11.5 mph - N/A   Mostly Cloudy
6:35 PM 73.4 °F 62.6 °F 69% 30.07 in 10.0 mi South 8.1 mph - N/A   Scattered Clouds
6:55 PM 73.4 °F 62.6 °F 69% 30.07 in 10.0 mi South 9.2 mph - N/A   Partly Cloudy
7:15 PM 73.4 °F 60.8 °F 65% 30.07 in 10.0 mi South 6.9 mph - N/A   Mostly Cloudy
7:35 PM 71.6 °F 62.6 °F 73% 30.07 in 10.0 mi South 5.8 mph - N/A   Mostly Cloudy
7:55 PM 71.6 °F 62.6 °F 73% 30.07 in 10.0 mi South 5.8 mph - N/A   Mostly Cloudy
8:15 PM 69.8 °F 64.4 °F 83% 30.07 in 10.0 mi South 5.8 mph - N/A   Mostly Cloudy
8:35 PM 66.2 °F 64.4 °F 94% 30.07 in 10.0 mi South 5.8 mph - N/A   Scattered Clouds
8:55 PM 64.4 °F 62.6 °F 94% 30.07 in 10.0 mi South 6.9 mph - N/A   Clear
9:15 PM 62.6 °F 62.6 °F 100% 30.07 in 10.0 mi South 8.1 mph - N/A   Clear
9:35 PM 62.6 °F 60.8 °F 94% 30.07 in 10.0 mi South 6.9 mph - N/A   Clear
9:55 PM 62.6 °F 60.8 °F 94% 30.07 in 10.0 mi SSW 6.9 mph - N/A   Clear
10:15 PM 60.8 °F 59.0 °F 94% 30.08 in 10.0 mi South 8.1 mph - N/A   Clear
10:35 PM 59.0 °F 59.0 °F 100% 30.08 in 10.0 mi South 8.1 mph - N/A   Clear
10:55 PM 57.2 °F 57.2 °F 100% 30.08 in 10.0 mi South 5.8 mph - N/A   Scattered Clouds
11:15 PM 57.2 °F 57.2 °F 100% 30.08 in 10.0 mi South 6.9 mph - N/A   Mostly Cloudy
11:35 PM 57.2 °F 57.2 °F 100% 30.08 in 10.0 mi South 6.9 mph - N/A   Scattered Clouds
11:55 PM 57.2 °F 57.2 °F 100% 30.08 in 10.0 mi South 6.9 mph - N/A   Scattered Clouds